User: anonymous   Login
Location: Unspecified
(0.0000°N, 0.0000°E)
Time: 11:39:28
(UTC+02:00)
Language:

Palapa 6 Rocket - Orbit

View from above orbital plane
View from above orbital plane
View from above satellite
View from above satellite

Ground track
Ground track

The orbit data is extracted from the following two-line orbital elements,

1 20571U 90034B   16207.72710298  .00000998  00000-0  99323-4 0  9999
2 20571  22.7491 331.2586 0509456 221.7295 134.3207 14.11678030345842
Epoch (UTC): 25 July 2016 17:27:01
Eccentricity: 0.0509456
inclination: 22.7491°
perigee height: 485 km
apogee height: 1222 km
right ascension of ascending node: 331.2586°
argument of perigee: 221.7295°
revolutions per day: 14.11678030
mean anomaly at epoch: 134.3207°
orbit number at epoch: 34584

The dashed part of the orbit path shows where the satellite is in the earth's shadow,  

DLR